SVA612 OERK-OMDB

Flight info

Callsign SVA612
Flight time 1h 41m
Altitude 35000
Route AMBAG2D/33R AMBAG M321 SITUK/N0484F290 M321 BOSOB Y511 MEDPO Q332 PEKEM M628 RIGIL G783 ASPED Q308 KIPOK/N0467F340 Q568 IMPED
Aircraft A320/M-SDE3FGHIRWY/LB1

Departure

Time 2026-04-23 18:52
Airport King Khalid International Airport (OERK)

Arrival

Time 2026-04-23 20:34
Airport Dubai International Airport (OMDB)
Time Latitude Longitude Altitude Speed Heading
2026-04-23 18:28 24.94805 46.71236 2034 ft 0 kts 60°
2026-04-23 18:44 24.94804 46.71233 2034 ft 0 kts 39°
2026-04-23 18:44 24.94794 46.71227 2034 ft 1 kts 49°
2026-04-23 18:44 24.94787 46.71212 2034 ft 2 kts 61°
2026-04-23 18:44 24.94779 46.71198 2034 ft 2 kts 60°
2026-04-23 18:45 24.94771 46.71184 2034 ft 2 kts 60°
2026-04-23 18:45 24.94764 46.71170 2034 ft 2 kts 64°
2026-04-23 18:45 24.94761 46.71153 2034 ft 2 kts 98°
2026-04-23 18:45 24.94766 46.71138 2034 ft 2 kts 127°
2026-04-23 18:46 24.94774 46.71130 2034 ft 0 kts 147°
2026-04-23 18:46 24.94780 46.71126 2034 ft 0 kts 150°
2026-04-23 18:48 24.94756 46.71141 2034 ft 6 kts 149°
2026-04-23 18:49 24.94701 46.71176 2033 ft 11 kts 150°
2026-04-23 18:49 24.94618 46.71230 2033 ft 15 kts 142°
2026-04-23 18:49 24.94625 46.71323 2033 ft 14 kts 59°
2026-04-23 18:49 24.94682 46.71435 2034 ft 18 kts 65°
2026-04-23 18:50 24.94727 46.71520 2032 ft 20 kts 57°
2026-04-23 18:50 24.94833 46.71725 2025 ft 19 kts 60°
2026-04-23 18:50 24.94897 46.71844 2024 ft 18 kts 58°
2026-04-23 18:50 24.94976 46.71914 2026 ft 11 kts 334°
2026-04-23 18:51 24.95001 46.71899 2026 ft 5 kts 330°
2026-04-23 18:51 24.95236 46.71751 2026 ft 71 kts 330°
2026-04-23 18:51 24.95842 46.71372 2034 ft 127 kts 328°
2026-04-23 18:51 24.96761 46.70786 2040 ft 173 kts 332°
2026-04-23 18:52 24.97828 46.70121 2525 ft 172 kts 334°
2026-04-23 18:52 24.98910 46.69559 3013 ft 175 kts 343°
2026-04-23 18:52 25.00055 46.69109 3582 ft 176 kts 346°
2026-04-23 18:52 25.01237 46.68676 3969 ft 186 kts 346°
2026-04-23 18:53 25.02520 46.68206 4272 ft 202 kts 346°
2026-04-23 18:53 25.03911 46.67688 4568 ft 218 kts 345°
2026-04-23 18:53 25.05394 46.67125 4866 ft 234 kts 344°
2026-04-23 18:53 25.06998 46.66511 5166 ft 253 kts 343°
2026-04-23 18:54 25.08735 46.65930 5501 ft 268 kts 354°
2026-04-23 18:54 25.10615 46.65953 5914 ft 275 kts 16°
2026-04-23 18:54 25.12458 46.66564 6471 ft 279 kts 22°
2026-04-23 18:54 25.14303 46.67283 6979 ft 286 kts 22°
2026-04-23 18:55 25.16207 46.68035 7484 ft 293 kts 24°
2026-04-23 18:55 25.17941 46.69216 7950 ft 294 kts 51°
2026-04-23 18:55 25.18976 46.71107 8551 ft 287 kts 77°
2026-04-23 18:55 25.19167 46.73265 9022 ft 284 kts 104°
2026-04-23 18:56 25.18791 46.74617 9300 ft 281 kts 123°
2026-04-23 18:56 25.17037 46.76627 9946 ft 274 kts 156°
2026-04-23 18:56 25.15280 46.77520 10261 ft 284 kts 159°
2026-04-23 18:56 25.13406 46.78421 10509 ft 298 kts 160°
2026-04-23 18:57 25.11470 46.79354 10732 ft 311 kts 160°
2026-04-23 18:57 25.09436 46.80339 10961 ft 324 kts 159°
2026-04-23 18:57 25.07333 46.81362 11190 ft 336 kts 159°
2026-04-23 18:57 25.05153 46.82427 11429 ft 348 kts 159°
2026-04-23 18:58 25.02890 46.83534 11639 ft 360 kts 159°
2026-04-23 18:58 25.00586 46.84663 11832 ft 370 kts 159°
2026-04-23 18:58 24.98187 46.85840 12098 ft 377 kts 159°
2026-04-23 18:58 24.95805 46.87008 12551 ft 379 kts 159°
2026-04-23 18:59 24.93396 46.88191 13199 ft 374 kts 160°
2026-04-23 18:59 24.91062 46.89339 13987 ft 365 kts 160°
2026-04-23 18:59 24.88743 46.90475 14434 ft 366 kts 160°
2026-04-23 18:59 24.86409 46.91608 14796 ft 369 kts 160°
2026-04-23 19:00 24.84045 46.92759 15159 ft 372 kts 160°
2026-04-23 19:00 24.81667 46.93914 15533 ft 374 kts 160°
2026-04-23 19:00 24.79237 46.95095 15674 ft 383 kts 160°
2026-04-23 19:00 24.76768 46.96297 15820 ft 391 kts 160°
2026-04-23 19:01 24.74278 46.97512 15968 ft 398 kts 160°
2026-04-23 19:01 24.71711 46.98761 16113 ft 406 kts 160°
2026-04-23 19:01 24.69099 47.00035 16371 ft 409 kts 160°
2026-04-23 19:01 24.66512 47.01297 16681 ft 410 kts 160°
2026-04-23 19:02 24.63882 47.02580 16946 ft 413 kts 160°
2026-04-23 19:02 24.61254 47.03859 17185 ft 416 kts 160°
2026-04-23 19:02 24.58585 47.05157 17441 ft 418 kts 160°
2026-04-23 19:02 24.55933 47.06447 17736 ft 419 kts 160°
2026-04-23 19:03 24.53247 47.07755 17977 ft 422 kts 160°
2026-04-23 19:03 24.50540 47.09070 18145 ft 426 kts 160°
2026-04-23 19:03 24.47837 47.10381 18395 ft 427 kts 160°
2026-04-23 19:03 24.45096 47.11715 18658 ft 429 kts 160°
2026-04-23 19:04 24.42358 47.13044 18847 ft 432 kts 160°
2026-04-23 19:04 24.39615 47.14373 19070 ft 433 kts 160°
2026-04-23 19:04 24.36833 47.15723 19286 ft 435 kts 160°
2026-04-23 19:04 24.34076 47.17057 19478 ft 437 kts 160°
2026-04-23 19:05 24.31249 47.18427 19686 ft 439 kts 160°
2026-04-23 19:05 24.28459 47.19781 19891 ft 441 kts 160°
2026-04-23 19:05 24.25638 47.21146 20082 ft 443 kts 160°
2026-04-23 19:05 24.22826 47.22506 20253 ft 445 kts 160°
2026-04-23 19:06 24.19987 47.23877 20461 ft 446 kts 160°
2026-04-23 19:06 24.17129 47.25259 20662 ft 448 kts 160°
2026-04-23 19:06 24.14278 47.26635 20809 ft 450 kts 160°
2026-04-23 19:06 24.11374 47.28038 20987 ft 452 kts 160°
2026-04-23 19:07 24.08506 47.29424 21162 ft 453 kts 160°
2026-04-23 19:07 24.05638 47.30807 21336 ft 454 kts 160°
2026-04-23 19:07 24.02701 47.32223 21485 ft 456 kts 160°
2026-04-23 19:07 23.99802 47.33619 21689 ft 456 kts 160°
2026-04-23 19:08 23.96888 47.35020 21829 ft 458 kts 160°
2026-04-23 19:08 23.93980 47.36422 21955 ft 460 kts 160°
2026-04-23 19:08 23.91051 47.37830 22098 ft 461 kts 160°
2026-04-23 19:08 23.88098 47.39248 22228 ft 463 kts 160°
2026-04-23 19:09 23.85112 47.40678 22374 ft 464 kts 160°
2026-04-23 19:09 23.82151 47.42096 22512 ft 465 kts 160°
2026-04-23 19:09 23.79183 47.43518 22619 ft 467 kts 160°
2026-04-23 19:09 23.76174 47.44959 22715 ft 469 kts 160°
2026-04-23 19:10 23.73185 47.46390 22862 ft 470 kts 160°
2026-04-23 19:10 23.70178 47.47833 22971 ft 472 kts 160°
2026-04-23 19:10 23.67170 47.49276 23081 ft 474 kts 161°
2026-04-23 19:10 23.64150 47.50722 23195 ft 476 kts 161°
2026-04-23 19:11 23.61101 47.52179 23334 ft 477 kts 160°
2026-04-23 19:11 23.58062 47.53633 23400 ft 479 kts 161°
2026-04-23 19:11 23.54981 47.55109 23536 ft 480 kts 161°
2026-04-23 19:11 23.51946 47.56558 23661 ft 481 kts 160°
2026-04-23 19:12 23.48849 47.58038 23746 ft 483 kts 160°
2026-04-23 19:12 23.45798 47.59495 23846 ft 484 kts 160°
2026-04-23 19:12 23.42684 47.60982 23941 ft 486 kts 160°
2026-04-23 19:12 23.39589 47.62461 24050 ft 487 kts 161°
2026-04-23 19:13 23.36461 47.63953 24183 ft 487 kts 160°
2026-04-23 19:13 23.33376 47.65424 24235 ft 489 kts 161°
2026-04-23 19:13 23.30256 47.66925 24354 ft 490 kts 161°
2026-04-23 19:13 23.27129 47.68432 24478 ft 490 kts 161°
2026-04-23 19:14 23.23990 47.69936 24510 ft 492 kts 161°
2026-04-23 19:14 23.20838 47.71440 24600 ft 493 kts 161°
2026-04-23 19:14 23.17730 47.72916 24707 ft 493 kts 161°
2026-04-23 19:14 23.14547 47.74427 24758 ft 495 kts 161°
2026-04-23 19:15 23.11417 47.75948 24879 ft 495 kts 159°
2026-04-23 19:15 23.08327 47.77646 24987 ft 498 kts 156°
2026-04-23 19:15 23.05322 47.79537 25037 ft 501 kts 153°
2026-04-23 19:15 23.02356 47.81530 25115 ft 502 kts 152°
2026-04-23 19:16 22.99407 47.83529 25250 ft 501 kts 152°
2026-04-23 19:16 22.96450 47.85532 25379 ft 501 kts 152°
2026-04-23 19:16 22.93474 47.87540 25468 ft 501 kts 152°
2026-04-23 19:17 22.87526 47.91539 25654 ft 501 kts 152°
2026-04-23 19:17 22.84563 47.93518 25812 ft 500 kts 152°
2026-04-23 19:17 22.81617 47.95488 25919 ft 499 kts 152°
2026-04-23 19:17 22.78642 47.97481 25988 ft 500 kts 152°
2026-04-23 19:18 22.75678 47.99468 26060 ft 501 kts 152°
2026-04-23 19:18 22.72760 48.01514 26131 ft 504 kts 146°
2026-04-23 19:18 22.70318 48.04250 26034 ft 516 kts 126°
2026-04-23 19:18 22.68774 48.07756 26160 ft 518 kts 106°
2026-04-23 19:19 22.67936 48.15422 26667 ft 511 kts 94°
2026-04-23 19:19 22.67685 48.19259 26623 ft 515 kts 94°
2026-04-23 19:20 22.67116 48.27002 26719 ft 517 kts 94°
2026-04-23 19:20 22.66804 48.30854 26840 ft 516 kts 95°
2026-04-23 19:20 22.66483 48.34671 26971 ft 515 kts 95°
2026-04-23 19:20 22.66152 48.38534 27045 ft 516 kts 95°
2026-04-23 19:21 22.65816 48.42397 27117 ft 516 kts 95°
2026-04-23 19:21 22.65141 48.50088 27372 ft 514 kts 95°
2026-04-23 19:21 22.64803 48.53909 27425 ft 515 kts 95°
2026-04-23 19:22 22.64460 48.57800 27497 ft 515 kts 95°
2026-04-23 19:22 22.64119 48.61639 27599 ft 515 kts 95°
2026-04-23 19:22 22.63435 48.69358 27778 ft 514 kts 95°
2026-04-23 19:23 22.63094 48.73171 27843 ft 514 kts 95°
2026-04-23 19:23 22.62751 48.77018 27910 ft 514 kts 95°
2026-04-23 19:23 22.62404 48.80877 27971 ft 514 kts 95°
2026-04-23 19:24 22.61712 48.88562 28130 ft 514 kts 95°
2026-04-23 19:24 22.60666 49.00063 28322 ft 514 kts 95°
2026-04-23 19:25 22.59967 49.07716 28456 ft 513 kts 95°
2026-04-23 19:25 22.59264 49.15380 28596 ft 513 kts 95°
2026-04-23 19:26 22.58552 49.23065 28701 ft 514 kts 95°
2026-04-23 19:26 22.58198 49.26876 28774 ft 513 kts 95°
2026-04-23 19:27 22.57484 49.34557 28895 ft 514 kts 95°
2026-04-23 19:27 22.56410 49.46019 29130 ft 512 kts 95°
2026-04-23 19:28 22.54960 49.61366 29365 ft 513 kts 95°
2026-04-23 19:29 22.53868 49.72825 29580 ft 512 kts 95°
2026-04-23 19:30 22.53092 49.84318 29691 ft 512 kts 91°
2026-04-23 19:31 22.52556 49.95814 29850 ft 512 kts 91°
2026-04-23 19:31 22.52189 50.03489 30001 ft 510 kts 91°
2026-04-23 19:32 22.51817 50.11108 30083 ft 511 kts 92°
2026-04-23 19:32 22.51435 50.18781 30210 ft 510 kts 92°
2026-04-23 19:33 22.51053 50.26427 30274 ft 511 kts 91°
2026-04-23 19:33 22.50472 50.37878 30418 ft 511 kts 92°
2026-04-23 19:34 22.50080 50.45508 30546 ft 510 kts 92°
2026-04-23 19:34 22.49683 50.53163 30655 ft 510 kts 92°
2026-04-23 19:35 22.49483 50.56995 30693 ft 510 kts 92°
2026-04-23 19:35 22.49083 50.64631 30739 ft 511 kts 92°
2026-04-23 19:36 22.48675 50.72346 30811 ft 511 kts 92°
2026-04-23 19:36 22.48267 50.80022 30881 ft 511 kts 92°
2026-04-23 19:37 22.47855 50.87643 30962 ft 510 kts 92°
2026-04-23 19:37 22.47437 50.95331 31039 ft 510 kts 92°
2026-04-23 19:38 22.47017 51.02943 31085 ft 511 kts 92°
2026-04-23 19:38 22.46593 51.10613 31157 ft 511 kts 92°
2026-04-23 19:39 22.46170 51.18221 31248 ft 510 kts 92°
2026-04-23 19:39 22.45738 51.25885 31284 ft 511 kts 92°
2026-04-23 19:40 22.45303 51.33548 31382 ft 510 kts 92°
2026-04-23 19:40 22.44869 51.41139 31487 ft 509 kts 92°
2026-04-23 19:41 22.44428 51.48800 31522 ft 510 kts 92°
2026-04-23 19:41 22.43985 51.56406 31633 ft 509 kts 92°
2026-04-23 19:42 22.43537 51.64017 31715 ft 509 kts 92°
2026-04-23 19:42 22.43085 51.71704 31739 ft 510 kts 92°
2026-04-23 19:43 22.42632 51.79324 31799 ft 509 kts 92°
2026-04-23 19:43 22.42173 51.86958 31844 ft 509 kts 92°
2026-04-23 19:44 22.41710 51.94573 31887 ft 509 kts 92°
2026-04-23 19:44 22.41249 52.02141 31945 ft 509 kts 92°
2026-04-23 19:45 22.40989 52.09768 32010 ft 507 kts 87°
2026-04-23 19:45 22.41547 52.17328 32075 ft 505 kts 79°
2026-04-23 19:46 22.42906 52.24725 32135 ft 502 kts 74°
2026-04-23 19:46 22.44463 52.32076 32169 ft 503 kts 74°
2026-04-23 19:47 22.46004 52.39451 32261 ft 502 kts 74°
2026-04-23 19:47 22.47518 52.46803 32330 ft 502 kts 74°
2026-04-23 19:48 22.49024 52.54155 32363 ft 503 kts 74°
2026-04-23 19:48 22.50528 52.61530 32492 ft 501 kts 75°
2026-04-23 19:49 22.52023 52.68885 32498 ft 502 kts 75°
2026-04-23 19:49 22.53501 52.76201 32557 ft 501 kts 75°
2026-04-23 19:50 22.54986 52.83543 32612 ft 500 kts 75°
2026-04-23 19:50 22.56468 52.90882 32564 ft 501 kts 75°
2026-04-23 19:51 22.57950 52.98243 32610 ft 501 kts 75°
2026-04-23 19:51 22.59428 53.05581 32621 ft 501 kts 75°
2026-04-23 19:52 22.60902 53.12940 32675 ft 500 kts 75°
2026-04-23 19:52 22.62372 53.20289 32627 ft 502 kts 75°
2026-04-23 19:53 22.63835 53.27626 32727 ft 500 kts 75°
2026-04-23 19:53 22.65305 53.35011 32736 ft 501 kts 75°
2026-04-23 19:54 22.66764 53.42359 32754 ft 501 kts 75°
2026-04-23 19:54 22.68224 53.49729 32795 ft 500 kts 75°
2026-04-23 19:55 22.69665 53.57036 32818 ft 501 kts 75°
2026-04-23 19:55 22.71120 53.64415 32901 ft 499 kts 75°
2026-04-23 19:56 22.72567 53.71789 32870 ft 501 kts 75°
2026-04-23 19:56 22.74001 53.79133 32914 ft 499 kts 75°
2026-04-23 19:57 22.75437 53.86471 32904 ft 500 kts 75°
2026-04-23 19:57 22.76877 53.93845 32923 ft 499 kts 75°
2026-04-23 19:58 22.78310 54.01186 32919 ft 499 kts 75°
2026-04-23 19:58 22.79805 54.08531 32968 ft 498 kts 74°
2026-04-23 19:59 22.81296 54.15816 32973 ft 498 kts 74°
2026-04-23 19:59 22.82787 54.23147 32945 ft 499 kts 74°
2026-04-23 20:00 22.84276 54.30496 33025 ft 498 kts 74°
2026-04-23 20:00 22.85752 54.37790 33007 ft 498 kts 74°
2026-04-23 20:01 22.87234 54.45157 33015 ft 498 kts 74°
2026-04-23 20:01 22.88705 54.52473 33039 ft 498 kts 74°
2026-04-23 20:02 22.90175 54.59800 33029 ft 499 kts 74°
2026-04-23 20:02 22.91641 54.67134 33063 ft 498 kts 75°
2026-04-23 20:03 22.93108 54.74522 33038 ft 499 kts 74°
2026-04-23 20:03 22.94560 54.81844 33042 ft 499 kts 74°
2026-04-23 20:04 22.96023 54.89217 33017 ft 499 kts 74°
2026-04-23 20:04 22.97474 54.96534 33038 ft 498 kts 74°
2026-04-23 20:05 22.98937 55.03926 33039 ft 498 kts 74°
2026-04-23 20:05 23.00390 55.11297 33056 ft 498 kts 73°
2026-04-23 20:06 23.02873 55.18133 33069 ft 485 kts 53°
2026-04-23 20:06 23.07219 55.23569 33125 ft 468 kts 33°
2026-04-23 20:07 23.12775 55.27068 33055 ft 455 kts 14°
2026-04-23 20:07 23.18923 55.28984 32976 ft 453 kts
2026-04-23 20:08 23.25030 55.30715 32941 ft 454 kts
2026-04-23 20:08 23.31190 55.32502 32934 ft 455 kts
2026-04-23 20:09 23.37314 55.34304 32966 ft 455 kts
2026-04-23 20:09 23.43463 55.36120 32987 ft 455 kts
2026-04-23 20:10 23.49621 55.37941 32999 ft 455 kts
2026-04-23 20:10 23.55738 55.39746 32960 ft 456 kts
2026-04-23 20:11 23.61872 55.41559 33020 ft 455 kts
2026-04-23 20:11 23.68005 55.43374 32992 ft 456 kts
2026-04-23 20:12 23.74126 55.45193 33024 ft 456 kts
2026-04-23 20:12 23.80281 55.47023 33037 ft 456 kts
2026-04-23 20:13 23.86417 55.48848 33068 ft 456 kts
2026-04-23 20:13 23.92521 55.50668 33086 ft 457 kts 11°
2026-04-23 20:14 23.98522 55.53151 33072 ft 465 kts 20°
2026-04-23 20:14 24.04168 55.56724 33143 ft 469 kts 29°
2026-04-23 20:14 24.06760 55.58861 32781 ft 470 kts 34°
2026-04-23 20:15 24.09228 55.61196 31626 ft 478 kts 37°
2026-04-23 20:15 24.11718 55.63667 30200 ft 484 kts 38°
2026-04-23 20:15 24.14192 55.66144 29355 ft 474 kts 39°
2026-04-23 20:15 24.16591 55.68565 28537 ft 467 kts 39°
2026-04-23 20:16 24.19007 55.70993 27327 ft 469 kts 39°
2026-04-23 20:16 24.21413 55.73396 26015 ft 472 kts 39°
2026-04-23 20:16 24.23801 55.75771 25091 ft 466 kts 39°
2026-04-23 20:16 24.26189 55.78154 24414 ft 461 kts 39°
2026-04-23 20:17 24.28565 55.80520 23735 ft 464 kts 39°
2026-04-23 20:17 24.30935 55.82878 22929 ft 457 kts 39°
2026-04-23 20:17 24.33258 55.85195 22335 ft 446 kts 40°
2026-04-23 20:17 24.35533 55.87465 21797 ft 437 kts 40°
2026-04-23 20:18 24.37775 55.89700 21273 ft 429 kts 40°
2026-04-23 20:18 24.39950 55.91866 20776 ft 424 kts 40°
2026-04-23 20:18 24.42137 55.94044 20264 ft 419 kts 40°
2026-04-23 20:18 24.44272 55.96173 19781 ft 414 kts 40°
2026-04-23 20:19 24.46388 55.98286 19289 ft 411 kts 40°
2026-04-23 20:19 24.48475 56.00370 18827 ft 407 kts 40°
2026-04-23 20:19 24.50567 56.02459 18355 ft 404 kts 40°
2026-04-23 20:19 24.52637 56.04531 17886 ft 401 kts 39°
2026-04-23 20:20 24.54677 56.06570 17428 ft 399 kts 40°
2026-04-23 20:20 24.56712 56.08611 16989 ft 395 kts 40°
2026-04-23 20:20 24.58810 56.10593 16499 ft 390 kts 33°
2026-04-23 20:20 24.61136 56.12032 16037 ft 382 kts 17°
2026-04-23 20:21 24.63676 56.12587 15239 ft 376 kts 357°
2026-04-23 20:21 24.66224 56.12112 14204 ft 370 kts 336°
2026-04-23 20:21 24.68426 56.10737 12881 ft 368 kts 318°
2026-04-23 20:21 24.70391 56.08950 11758 ft 365 kts 317°
2026-04-23 20:22 24.72286 56.07194 11143 ft 349 kts 317°
2026-04-23 20:22 24.74095 56.05534 10717 ft 331 kts 317°
2026-04-23 20:22 24.75826 56.03958 10357 ft 313 kts 317°
2026-04-23 20:22 24.77463 56.02473 9926 ft 302 kts 317°
2026-04-23 20:23 24.79044 56.01041 9619 ft 288 kts 317°
2026-04-23 20:23 24.80583 55.99648 9142 ft 284 kts 317°
2026-04-23 20:23 24.82114 55.98258 8364 ft 289 kts 318°
2026-04-23 20:23 24.83673 55.96846 7917 ft 292 kts 318°
2026-04-23 20:24 24.85248 55.95426 7685 ft 289 kts 318°
2026-04-23 20:24 24.86807 55.94022 7665 ft 291 kts 318°
2026-04-23 20:24 24.88381 55.92603 7656 ft 291 kts 318°
2026-04-23 20:24 24.89944 55.91192 7638 ft 291 kts 318°
2026-04-23 20:25 24.91504 55.89784 7625 ft 291 kts 318°
2026-04-23 20:25 24.92992 55.88258 7611 ft 288 kts 308°
2026-04-23 20:25 24.94208 55.86544 7610 ft 288 kts 304°
2026-04-23 20:25 24.95397 55.84753 7606 ft 289 kts 304°
2026-04-23 20:26 24.96599 55.82965 7595 ft 288 kts 304°
2026-04-23 20:26 24.97791 55.81227 7423 ft 283 kts 305°
2026-04-23 20:26 24.98992 55.79498 6943 ft 283 kts 305°
2026-04-23 20:26 25.00186 55.77789 6476 ft 282 kts 306°
2026-04-23 20:27 25.01381 55.76091 6026 ft 280 kts 306°
2026-04-23 20:27 25.02562 55.74414 5577 ft 278 kts 307°
2026-04-23 20:27 25.03757 55.72723 5146 ft 275 kts 307°
2026-04-23 20:27 25.04919 55.71074 4728 ft 272 kts 307°
2026-04-23 20:28 25.06075 55.69436 4288 ft 270 kts 308°
2026-04-23 20:28 25.07216 55.67819 3931 ft 265 kts 308°
2026-04-23 20:28 25.08336 55.66230 3618 ft 258 kts 309°
2026-04-23 20:28 25.09418 55.64691 3321 ft 252 kts 308°
2026-04-23 20:29 25.10437 55.63117 3034 ft 246 kts 306°
2026-04-23 20:29 25.11375 55.61554 2694 ft 243 kts 304°
2026-04-23 20:29 25.12271 55.59983 2497 ft 241 kts 304°
2026-04-23 20:29 25.13140 55.58419 2308 ft 237 kts 303°
2026-04-23 20:30 25.13990 55.56876 2028 ft 233 kts 303°
2026-04-23 20:30 25.15636 55.53890 1919 ft 230 kts 303°
2026-04-23 20:30 25.16476 55.52370 1898 ft 230 kts 303°
2026-04-23 20:31 25.17319 55.50846 1896 ft 231 kts 303°
2026-04-23 20:31 25.18143 55.49353 1878 ft 222 kts 304°
2026-04-23 20:31 25.18935 55.47917 1715 ft 215 kts 303°
2026-04-23 20:31 25.19704 55.46528 1472 ft 208 kts 303°
2026-04-23 20:32 25.20431 55.45211 1203 ft 193 kts 304°
2026-04-23 20:32 25.21099 55.44003 986 ft 176 kts 304°
2026-04-23 20:32 25.21717 55.42885 732 ft 161 kts 303°
2026-04-23 20:32 25.22270 55.41863 532 ft 148 kts 302°
2026-04-23 20:33 25.22802 55.40882 374 ft 149 kts 304°
2026-04-23 20:33 25.23351 55.39915 206 ft 147 kts 303°
2026-04-23 20:33 25.23880 55.38963 80 ft 137 kts 301°
2026-04-23 20:33 25.24321 55.38175 70 ft 94 kts 302°
2026-04-23 20:34 25.24574 55.37704 70 ft 44 kts 293°
2026-04-23 20:34 25.24617 55.37458 70 ft 20 kts 270°
2026-04-23 20:34 25.24621 55.37357 70 ft 0 kts 271°
2026-04-23 20:34 25.24621 55.37348 70 ft 3 kts 271°
2026-04-23 20:35 25.24621 55.37326 70 ft 0 kts 271°
2026-04-23 20:35 25.24621 55.37316 70 ft 3 kts 272°
2026-04-23 20:35 25.24627 55.37275 70 ft 7 kts 283°
2026-04-23 20:35 25.24654 55.37209 70 ft 11 kts 300°
2026-04-23 20:36 25.24702 55.37120 70 ft 15 kts 302°
2026-04-23 20:36 25.24764 55.37009 70 ft 18 kts 301°
2026-04-23 20:36 25.24834 55.36880 70 ft 20 kts 295°
2026-04-23 20:36 25.24874 55.36719 69 ft 22 kts 287°
2026-04-23 20:37 25.24950 55.36556 69 ft 24 kts 303°
2026-04-23 20:37 25.25042 55.36389 69 ft 26 kts 302°
2026-04-23 20:37 25.25140 55.36212 69 ft 27 kts 302°
2026-04-23 20:37 25.25241 55.36028 69 ft 28 kts 303°
2026-04-23 20:38 25.25352 55.35841 69 ft 29 kts 299°
2026-04-23 20:38 25.25456 55.35642 69 ft 30 kts 302°
2026-04-23 20:38 25.25566 55.35443 69 ft 30 kts 302°
2026-04-23 20:38 25.25670 55.35258 69 ft 25 kts 304°
2026-04-23 20:39 25.25738 55.35109 69 ft 20 kts 263°
2026-04-23 20:39 25.25642 55.35021 69 ft 14 kts 213°
2026-04-23 20:39 25.25578 55.34978 67 ft 0 kts 215°
2026-04-23 20:39 25.25577 55.34977 67 ft 0 kts 218°